Location: Carnetin
(48.9010°N, 2.7059°E)
Time: 12:37:24
(UTC+00:00)

Cosmos 1825 - Visible Passes

Search period start: 29 May 2022 00:00
Search period end: 08 June 2022 00:00
Orbit: 495 x 501 km, 82.5° (Epoch: 29 May)

Date Brightness Start Highest point End Pass type
(mag) Time Alt. Az. Time Alt. Az. Time Alt. Az.
29 May 5.0 02:22:37 10° ESE 02:24:32 14° E 02:26:28 10° NE visible
01 Jun 2.7 02:54:14 10° S 02:57:52 57° E 03:01:33 10° NNE visible
02 Jun 3.3 02:33:53 10° SSE 02:37:23 40° E 02:40:54 10° NNE visible
03 Jun 3.9 02:13:39 10° SSE 02:16:53 29° E 02:20:10 10° NNE visible
04 Jun 4.3 01:53:32 10° SE 01:56:25 22° E 01:59:19 10° NE visible
05 Jun 4.7 01:33:38 10° SE 01:35:58 16° E 01:38:18 10° NE visible
06 Jun 4.9 01:14:05 10° ESE 01:15:31 12° E 01:16:56 10° ENE visible
06 Jun 2.3 02:46:41 10° SSW 02:50:20 58° WNW 02:54:03 10° N visible
07 Jun 2.1 02:26:19 12° S 02:29:44 83° W 02:33:29 10° N visible
